Regional Weather Roundup
Issued by NWS

Home | Current Version | Previous Version | Text Only | Print | Product List | Glossary Off
Versions: 1 2 3 4 5 6 7 8 9 10 11 12 13 14 15 16 17 18 19 20 21 22 23 24 25 26 27 28 29 30 31 32 33 34 35 36 37 38 39 40 41 42 43 44 45 46 47 48 49 50

000
ASUS43 KBIS 310220
RWRND

NORTH DAKOTA REGIONAL WEATHER ROUNDUP
NATIONAL WEATHER SERVICE BISMARCK ND
800 PM CST FRI JAN 30 2015

NOTE: "FAIR" INDICATES FEW OR NO CLOUDS BELOW 12,000 FEET WITH NO
SIGNIFICANT WEATHER AND/OR OBSTRUCTIONS TO VISIBILITY.


NDZ001>003-009>011-017-310300-
NORTHWEST NORTH DAKOTA

CITY           SKY/WX    TMP DP  RH WIND       PRES   REMARKS
WILLISTON      CLEAR     29  25  85 N9        30.20S
MINOT          CLOUDY    25  21  85 N13       30.20S WCI  14
MINOT AFB      CLOUDY    25  25  99 N13       30.21R WCI  13
$$

NDZ018>021-031>035-040>046-310300-
SOUTHWEST NORTH DAKOTA

CITY           SKY/WX    TMP DP  RH WIND       PRES   REMARKS
BISMARCK       CLEAR     33  28  81 N7        30.20R
DICKINSON      CLEAR     32  23  69 N7        30.15R
GARRISON         N/A     27  24  89 N7        30.18R WCI  19
HETTINGER ARPT CLEAR     27  21  78 N5        30.17R
$$

NDZ004>008-012>016-024-026-027-054-310300-
NORTHEAST NORTH DAKOTA

CITY           SKY/WX    TMP DP  RH WIND       PRES   REMARKS
GRAND FORKS    CLOUDY    28  21  75 NW13      30.15R WCI  17
GRND FRKS AFB  CLOUDY    26  21  79 N16       30.17R WCI  14
DEVILS LAKE    CLOUDY    23  19  86 N15       30.18R WCI  10
$$

NDZ022-023-025-028>030-036>039-047>053-310300-
SOUTHEAST NORTH DAKOTA

CITY           SKY/WX    TMP DP  RH WIND       PRES   REMARKS
FARGO          CLEAR     23  20  88 SW3       30.13R
JAMESTOWN      CLOUDY    27  24  89 NW17      30.16R WCI  14
$$



USA.gov is the U.S. government's official web portal to all federal, state and local government web resources and services.